HAWK-C (43799 NORAD) Tracking and Keplerian Element Data

This shows tracking and keplerian element data for the satellite.

Feedback or suggestion? Click here.




ElementValue
Catalog43799
NameHAWK-C
Epoch Orbit3303
Epoch Day193.75144851
Epoch Year2019
RAAN265.5754
Inclination97.7414
Eccentricity0.0013458
Argument of Perigee252.9292
Mean Anonmoly107.0455
Mean Motion14.95992785
Decay Rate5.94E-06
L11 43799U 18099AT 19193.75144851 .00000594 00000-0 58137-4 0 9993
L22 43799 97.7414 265.5754 0013458 252.9292 107.0455 14.95992785 33032

Live tracking and technical data element details for HAWK-C (NORAD 43799). HAWK-C can be tracked NOW for your location showing map with azimuth and elevation plus other details from your city location.

Track the satellite on the map from your city or location and see movement details for azimuth, elevation, latitude, longitude, range, height, and movement on the map or in text.







IsCatalogInMostPopularTable: catalog: 43799, numindb: 96
Update: records affected: 1



GetName: 43799 HAWK-C

Hit Count: updated at: Mon, 15 Jul 2019 22:52:38 GMT